INTELSAT 10 (IS-10) 1 26766U 01019A 25259.75654610 -.00000299 00000+0 00000+0 0 9994 2 26766 8.4172 62.0251 0003507 183.5661 175.7350 0.99080265 42869 INTELSAT 902 (IS-902) 1 26900U 01039A 25259.43102468 -.00000300 00000+0 00000+0 0 9993 2 26900 5.4207 75.1205 0004141 97.6820 287.9077 1.00272465 87955 INTELSAT 904 (IS-904) 1 27380U 02007A 25260.22056492 -.00000221 00000+0 00000+0 0 9998 2 27380 6.2332 72.4459 0003022 119.6491 216.2443 1.00270746 49021 DIRECTV 5 (TEMPO 1) 1 27426U 02023A 25260.24628236 -.00000075 00000+0 00000+0 0 9997 2 27426 4.1757 78.7150 0003318 110.9986 145.2674 1.00271318 85380 INTELSAT 905 (IS-905) 1 27438U 02027A 25260.15600288 .00000077 00000+0 00000+0 0 9992 2 27438 6.0629 73.0772 0002373 108.8197 93.4075 1.00271541 48623 GALAXY 3C (G-3C) 1 27445U 02030A 25260.23516721 -.00000172 00000+0 00000+0 0 9998 2 27445 3.0359 81.4128 0002113 61.3345 203.4890 1.00271833 43757 INTELSAT 906 (IS-906) 1 27513U 02041A 25260.09595141 -.00000006 00000+0 00000+0 0 9999 2 27513 5.1037 76.2840 0002590 131.6244 247.0935 1.00273672 84291 GALAXY 13 (HORIZONS-1) 1 27954U 03044A 25260.16155800 .00000113 00000+0 00000+0 0 9992 2 27954 0.7070 87.8214 0002135 86.3649 90.3198 1.00272234 43839 INTELSAT 10-02 1 28358U 04022A 25260.22585161 -.00000031 00000+0 00000+0 0 9992 2 28358 0.0266 257.3722 0000880 318.4545 220.9119 1.00272352 77815 XM-3 (RHYTHM) 1 28626U 05008A 25259.85205319 -.00000219 00000+0 00000+0 0 9994 2 28626 0.0442 353.1785 0000211 218.1167 5.1774 1.00271358 39887 DIRECTV 8 1 28659U 05019A 25260.24628236 -.00000019 00000+0 00000+0 0 9992 2 28659 0.0194 145.2644 0003112 47.1925 133.5841 1.00271901 74330 GALAXY 28 (G-28) 1 28702U 05022A 25260.20843153 -.00000207 00000+0 00000+0 0 9997 2 28702 2.5909 82.3417 0001912 89.1082 171.2764 1.00272039 49243 GALAXY 16 (G-16) 1 29236U 06023A 25260.24072765 -.00000147 00000+0 00000+0 0 9992 2 29236 0.0328 222.0135 0002656 320.6300 161.4455 1.00273118 70236 DIRECTV 9S 1 29494U 06043A 25260.24072765 -.00000133 00000+0 00000+0 0 9995 2 29494 1.7117 84.2505 0002944 97.5909 160.0490 1.00271385 48648 GALAXY 17 (G-17) 1 31307U 07016B 25260.20921153 -.00000226 00000+0 00000+0 0 9995 2 31307 2.2762 83.3691 0004641 142.3264 121.0289 1.00272040 67060 DIRECTV 10 1 31862U 07032A 25260.24072765 -.00000124 00000+0 00000+0 0 9996 2 31862 0.0431 337.4437 0000717 271.8699 90.9778 1.00272064 42859 INTELSAT 11 (IS-11) 1 32253U 07044B 25260.20349150 .00000042 00000+0 00000+0 0 9993 2 32253 2.8493 82.0259 0007900 121.5196 112.3149 0.99047793 65741 HORIZONS-2 1 32388U 07063B 25260.22961505 -.00000273 00000+0 00000+0 0 9996 2 32388 1.8928 84.0132 0002229 135.6619 145.6103 1.00270605 65077 DIRECTV 11 1 32729U 08013A 25259.56405860 -.00000145 00000+0 00000+0 0 9991 2 32729 0.0226 338.5090 0000182 257.3560 223.7652 1.00272006 42856 GALAXY 18 (G-18) 1 32951U 08024A 25260.20167150 .00000005 00000+0 00000+0 0 9994 2 32951 0.0192 150.2859 0003118 37.7209 117.9673 1.00272084 43112 INTELSAT 25 (IS-25) 1 33153U 08034A 25260.21978492 -.00000244 00000+0 00000+0 0 9996 2 33153 1.9996 83.7063 0005314 122.0253 198.2593 1.00268788 62955 GALAXY 19 (G-19) 1 33376U 08045A 25260.24044987 -.00000160 00000+0 00000+0 0 9998 2 33376 0.0496 264.9582 0002792 280.7408 160.2969 1.00273297 62167 FM-5 1 35493U 09034A 25260.13753789 -.00000220 00000+0 00000+0 0 9991 2 35493 0.0402 268.0704 0000439 184.9687 226.6424 1.00270371 43901 INTELSAT 14 (IS-14) 1 36097U 09064A 25260.22406034 .00000000 00000+0 00000+0 0 9998 2 36097 0.0213 138.1093 0002544 55.0645 198.8990 1.00268555 57860 INTELSAT 15 (IS-15) 1 36106U 09067A 25260.05878062 -.00000205 00000+0 00000+0 0 9995 2 36106 0.0211 251.4511 0002365 300.2588 270.8468 1.00271728 38490 DIRECTV 12 1 36131U 09075A 25260.14461530 -.00000124 00000+0 00000+0 0 9990 2 36131 0.0412 1.1947 0000300 180.3908 124.0849 1.00271917 43819 INTELSAT 16 (IS-16) 1 36397U 10006A 25260.12822476 -.00000265 00000+0 00000+0 0 9994 2 36397 0.0323 276.1365 0002288 277.7309 132.3990 1.00270524 56912 XM-5 1 37185U 10053A 25259.70359255 -.00000042 00000+0 00000+0 0 9997 2 37185 0.0603 272.0087 0000214 156.3967 65.5849 1.00269248 54744 INTELSAT 17 (IS-17) 1 37238U 10065B 25260.15183741 -.00000022 00000+0 00000+0 0 9993 2 37238 0.0178 196.9070 0002502 348.3539 291.7399 1.00271453 50511 INTELSAT 28 (IS-28) 1 37392U 11016A 25260.21969825 -.00000245 00000+0 00000+0 0 9990 2 37392 1.0959 86.1947 0004288 98.8990 218.7084 1.00272211 50540 INTELSAT 18 (IS-18) 1 37834U 11056A 25260.18100226 .00000000 00000+0 00000+0 0 9991 2 37834 0.0240 162.9909 0001810 20.0181 58.5026 1.00269299 51078 INTELSAT 22 (IS-22) 1 38098U 12011A 25260.15183741 -.00000079 00000+0 00000+0 0 9993 2 38098 0.0267 243.2593 0001938 301.0331 298.8329 1.00270915 4454 INTELSAT 19 (IS-19) 1 38356U 12030A 25260.18656029 .00000000 00000+0 00000+0 0 9991 2 38356 0.0194 157.2917 0002984 32.6215 39.6237 1.00270806 47718 INTELSAT 20 (IS-20) 1 38740U 12043A 25259.59733874 -.00000044 00000+0 00000+0 0 9998 2 38740 0.0101 163.3381 0001786 3.8500 112.1469 1.00269748 48002 INTELSAT 21 (IS-21) 1 38749U 12045A 25260.25542501 -.00000305 00000+0 00000+0 0 9999 2 38749 0.0221 250.5357 0001972 300.3107 199.5442 1.00271065 47780 INTELSAT 23 (IS-23) 1 38867U 12057A 25260.27151295 -.00000305 00000+0 00000+0 0 9991 2 38867 0.0408 255.1835 0001540 355.4494 150.5835 1.00271564 47216 FM-6 1 39360U 13058A 25260.24628236 -.00000037 00000+0 00000+0 0 9995 2 39360 0.0220 136.8592 0002479 31.5695 160.4927 1.00269764 43328 INTELSAT 30 (IS-30) 1 40271U 14062A 25260.23516721 .00000000 00000+0 00000+0 0 9997 2 40271 0.0210 131.8256 0001489 278.9118 295.2747 1.00267803 4044 DIRECTV 14 1 40333U 14078B 25259.56405860 .00000000 00000+0 00000+0 0 9998 2 40333 0.0222 146.2443 0000593 136.7822 176.5653 1.00270096 39304 DIRECTV 15 1 40663U 15026A 25260.24072765 -.00000123 00000+0 00000+0 0 9996 2 40663 0.0343 94.4274 0000111 97.7218 148.0727 1.00268993 37724 SKY MEXICO-1 1 40664U 15026B 25260.12822476 -.00000255 00000+0 00000+0 0 9992 2 40664 0.0168 103.5675 0002168 88.8949 131.2489 1.00271034 37711 INTELSAT 34 (IS-34) 1 40874U 15039A 25260.21850266 -.00000306 00000+0 00000+0 0 9994 2 40874 0.0142 238.6815 0001534 128.0340 12.8439 1.00270143 36886 INTELSAT 31 (IS-31) 1 41581U 16035A 25259.85031985 -.00000171 00000+0 00000+0 0 9994 2 41581 0.0204 226.9031 0001800 4.1687 336.0219 1.00271893 33949 INTELSAT 36 (IS-36) 1 41747U 16053A 25260.16821804 .00000000 00000+0 00000+0 0 9991 2 41747 0.0181 135.0058 0001783 200.5241 149.8569 1.00269611 33217 INTELSAT 32E (IS-32E) 1 41945U 17007B 25260.22406034 -.00000289 00000+0 00000+0 0 9992 2 41945 0.0193 105.5566 0000418 232.3035 56.0262 1.00269591 31487 INTELSAT 35E (IS-35E) 1 42818U 17041A 25260.21917824 -.00000258 00000+0 00000+0 0 9999 2 42818 0.0210 245.4679 0002713 328.5217 186.8263 1.00272370 30072 INTELSAT 37E (IS-37E) 1 42950U 17059A 25260.22247160 -.00000161 00000+0 00000+0 0 9998 2 42950 0.0164 173.5732 0002960 17.8077 227.1142 1.00272033 29321 AZERSPACE 2 (IS-38) 1 43632U 18074A 25260.16362469 .00000000 00000+0 00000+0 0 9998 2 43632 0.0252 155.2617 0001405 27.0176 278.0772 1.00271204 25714 HORIZONS-3E 1 43633U 18074B 25260.18656029 -.00000051 00000+0 00000+0 0 9996 2 43633 0.0212 252.6679 0001899 36.2566 303.6154 1.00272446 25609 AT&T T-16 1 44333U 19034A 25260.24072765 -.00000135 00000+0 00000+0 0 9990 2 44333 0.0248 100.5817 0000072 35.5300 206.1071 1.00269126 22895 INTELSAT 39 (IS-39) 1 44476U 19049B 25259.77062949 .00000000 00000+0 00000+0 0 9993 2 44476 0.0229 167.6378 0000669 160.5865 7.1063 1.00269344 22381 GALAXY 30 (G-30) 1 46114U 20056C 25260.20123817 .00000017 00000+0 00000+0 0 9994 2 46114 0.0191 139.6009 0002127 43.7833 120.4438 1.00271251 18557 GALAXY 33 (G-33) 1 54026U 22128A 25260.19967816 .00000058 00000+0 00000+0 0 9995 2 54026 0.0167 246.3752 0001833 299.4543 109.4429 1.00273974 11007 GALAXY 34 (G-34) 1 54027U 22128B 25260.20045816 .00000000 00000+0 00000+0 0 9992 2 54027 0.0195 181.3550 0001542 355.6426 122.6221 1.00270840 11179 GALAXY 31 (G-31) 1 54243U 22153A 25260.20201817 -.00000007 00000+0 00000+0 0 9993 2 54243 0.0182 213.7618 0001582 356.2169 98.1341 1.00271974 4390 GALAXY 32 (G-32) 1 54244U 22153B 25259.56570527 .00000000 00000+0 00000+0 0 9990 2 54244 0.0184 150.6756 0000362 127.0433 190.6942 1.00268490 10401 GALAXY 35 (G-35) 1 54741U 22170A 25260.20756486 -.00000183 00000+0 00000+0 0 9997 2 54741 0.0229 228.9355 0001968 313.1545 155.9299 1.00271691 10150 GALAXY 36 (G-36) 1 54742U 22170B 25260.20834486 -.00000205 00000+0 00000+0 0 9990 2 54742 0.0097 156.4654 0001685 349.7104 196.2154 1.00270556 10037 GALAXY 37 (G-37) 1 57493U 23112A 25260.20089149 .00000000 00000+0 00000+0 0 9993 2 57493 0.0231 140.7011 0002152 55.0372 105.9664 1.00270752 7802